Tracking 25949 objects as of 9-Aug-2022
HD Live streaming from Space Station
objects crossing your sky now

STARLINK-4207

Track STARLINK-4207 now!
10-day predictions
STARLINK-4207 is classified as:


NORAD ID: 52871
Int'l Code: 2022-062AT
Perigee: 354.8 km
Apogee: 359.0 km
Inclination: 53.2 °
Period: 91.5 minutes
Semi major axis: 6727 km
RCS: Unknown
Launch date: June 17, 2022
Source: United States (US)
Launch site: AIR FORCE EASTERN TEST RANGE (AFETR)
aabbcc
Your satellite tracking list
Your tracking list is empty




NASA's NSSDC Master Catalog

Two Line Element Set (TLE):
1 52871U 22062AT  22221.25001157 -.00076862  00000-0 -54792-3 0  9996
2 52871  53.2145 143.9168 0003167  12.1123 237.8800 15.73205092  8802
Source of the keplerian elements: AFSPC